Hourly Data Report for June 29, 2018

OTTAWA INTL A
ONTARIO
Current Station Operator: NAVCAN

45°19'00.000" N
75°40'00.000" W
114.90 m
6106001
71628
YOW

Download Data

Hourly Data (June 2018)
Hourly Data Report for June 29, 2018
TIME
LST
Temp Definition
°C
Dew Point Definition
°C
Rel Hum Definition
%
Precip. Amount Definition
mm

Wind Dir Definition
10's deg

Wind Spd Definition
km/h
Visibility Definition
km
Stn Press Definition
kPa
Hmdx Definition


Wind Chill Definition


Weather Definition


00:00 19.5 18.7 95   22 13 24.1 99.58     LegendNANA
01:00 19.2 18.2 94   22 8 24.1 99.57     Mainly Clear
02:00 18.1 17.4 96   22 9 24.1 99.64     LegendNANA
03:00 17.6 17.0 96   21 10 24.1 99.66     LegendNANA
04:00 17.0 16.1 95   23 11 24.1 99.74     Mainly Clear
05:00 17.1 16.1 94   22 12 24.1 99.80     LegendNANA
06:00 18.4 16.5 88   25 10 24.1 99.86     LegendNANA
07:00 21.1 16.9 77   28 13 24.1 99.88 26   Clear
08:00 23.1 17.0 68   28 17 24.1 99.93 28   LegendNANA
09:00 24.2 17.7 67   28 12 24.1 99.94 30   LegendNANA
10:00 26.7 18.2 59   27 13 24.1 99.97 33   Clear
11:00 28.0 18.2 54   28 12 24.1 99.96 34   LegendNANA
12:00 29.4 15.2 42   30 20 24.1 100.02 33   LegendNANA
13:00 30.5 13.3 34   28 23 24.1 100.00 33   Mostly Cloudy
14:00 31.1 13.9 35   29 23 24.1 99.96 34   LegendNANA
15:00 32.1 13.2 31   29 19 24.1 99.99 35   LegendNANA
16:00 31.4 14.1 34   29 20 24.1 99.96 35   Mostly Cloudy
17:00 31.7 13.3 32   30 25 24.1 99.91 35   LegendNANA
18:00 30.8 13.8 35   28 15 24.1 99.91 34   LegendNANA
19:00 28.8 15.0 42   26 5 24.1 99.92 33   Mostly Cloudy
20:00 24.4 16.8 62   16 7 24.1 99.92 30   LegendNANA
21:00 24.6 18.4 68   18 11 24.1 100.00 31   LegendNANA
22:00 22.9 18.8 77   19 9 24.1 100.00 30   Mainly Clear
23:00 22.6 18.6 78   19 9 24.1 100.10 29   LegendNANA

Notes on Data Quality.

Legend

  • E = Estimated
  • M = Missing
  • NA = Not Available*
  • [empty] = Indicates an unobserved value
Date modified: